Hourly Weather Rumat Heib

Today, 20 April, Tuesday

Time Temperature Precipitation Wind Pressure Humidity
00:00 +29°C° 0 mm 1 mps 741 mmHg 22%
01:00 +28°C° 0 mm 1 mps 741 mmHg 23%
02:00 +28°C° 0 mm 1 mps 741 mmHg 23%
03:00 +28°C° 0 mm 1 mps 741 mmHg 23%
04:00 +28°C° 0 mm 1 mps 741 mmHg 23%
05:00 +27°C° 0 mm 1 mps 741 mmHg 23%
06:00 +28°C° 0 mm 2 mps 741 mmHg 26%
07:00 +29°C° 0 mm 2 mps 742 mmHg 28%
08:00 +30°C° 0 mm 2 mps 742 mmHg 31%
09:00 +31°C° 0 mm 2 mps 742 mmHg 30%
10:00 +33°C° 0 mm 3 mps 742 mmHg 29%
11:00 +34°C° 0 mm 3 mps 743 mmHg 29%
12:00 +33°C° 0 mm 4 mps 742 mmHg 33%
13:00 +32°C° 0 mm 5 mps 742 mmHg 37%
14:00 +30°C° 0 mm 6 mps 742 mmHg 41%
15:00 +28°C° 0 mm 5 mps 743 mmHg 47%
16:00 +26°C° 0 mm 5 mps 743 mmHg 52%
17:00 +23°C° 0 mm 4 mps 743 mmHg 58%
18:00 +21°C° 0 mm 4 mps 743 mmHg 64%
19:00 +20°C° 0 mm 3 mps 744 mmHg 70%
20:00 +18°C° 0 mm 3 mps 744 mmHg 76%
21:00 +18°C° 0 mm 3 mps 744 mmHg 78%
22:00 +17°C° 0 mm 2 mps 745 mmHg 79%
23:00 +17°C° 0 mm 2 mps 745 mmHg 80%

Tomorrow, 21 April, Wednesday

Time Temperature Precipitation Wind Pressure Humidity
00:00 +16°C° 0 mm 2 mps 745 mmHg 81%
01:00 +16°C° 0 mm 2 mps 745 mmHg 82%
02:00 +16°C° 0 mm 2 mps 745 mmHg 83%
03:00 +15°C° 0 mm 2 mps 745 mmHg 84%
04:00 +15°C° 0 mm 1 mps 746 mmHg 85%
05:00 +15°C° 0 mm 1 mps 746 mmHg 85%
06:00 +16°C° 0 mm 1 mps 746 mmHg 75%
07:00 +18°C° 0 mm 2 mps 746 mmHg 64%
08:00 +20°C° 0 mm 2 mps 746 mmHg 53%
09:00 +21°C° 0 mm 2 mps 746 mmHg 48%
10:00 +24°C° 0 mm 3 mps 746 mmHg 43%
11:00 +25°C° 0 mm 3 mps 746 mmHg 37%
12:00 +25°C° 0 mm 4 mps 746 mmHg 37%
13:00 +26°C° 0 mm 5 mps 746 mmHg 37%
14:00 +26°C° 0 mm 6 mps 745 mmHg 36%
15:00 +23°C° 0 mm 5 mps 745 mmHg 41%
16:00 +22°C° 0 mm 5 mps 745 mmHg 45%
17:00 +21°C° 0 mm 4 mps 745 mmHg 50%
18:00 +19°C° 0 mm 4 mps 746 mmHg 57%
19:00 +18°C° 0 mm 3 mps 746 mmHg 65%
20:00 +16°C° 0 mm 3 mps 746 mmHg 72%
21:00 +16°C° 0 mm 2 mps 747 mmHg 74%
22:00 +15°C° 0 mm 2 mps 747 mmHg 76%
23:00 +15°C° 0 mm 2 mps 747 mmHg 77%

Day after tomorrow, 22 April, Thursday

Time Temperature Precipitation Wind Pressure Humidity
00:00 +14°C° 0 mm 2 mps 747 mmHg 78%
01:00 +14°C° 0 mm 2 mps 747 mmHg 79%
02:00 +14°C° 0 mm 2 mps 747 mmHg 81%
03:00 +14°C° 0 mm 1 mps 747 mmHg 82%
04:00 +13°C° 0 mm 1 mps 747 mmHg 83%
05:00 +13°C° 0 mm 1 mps 747 mmHg 84%
06:00 +15°C° 0 mm 1 mps 747 mmHg 75%
07:00 +17°C° 0 mm 2 mps 747 mmHg 65%
08:00 +19°C° 0 mm 2 mps 748 mmHg 55%
09:00 +21°C° 0 mm 3 mps 747 mmHg 49%
10:00 +22°C° 0 mm 3 mps 747 mmHg 43%
11:00 +25°C° 0 mm 3 mps 747 mmHg 37%
12:00 +25°C° 0 mm 4 mps 747 mmHg 36%
13:00 +25°C° 0 mm 5 mps 747 mmHg 36%
14:00 +24°C° 0 mm 6 mps 747 mmHg 35%
15:00 +23°C° 0 mm 5 mps 746 mmHg 37%
16:00 +22°C° 0 mm 5 mps 746 mmHg 40%
17:00 +21°C° 0 mm 4 mps 746 mmHg 43%
18:00 +19°C° 0 mm 4 mps 746 mmHg 54%
19:00 +17°C° 0 mm 3 mps 746 mmHg 65%
20:00 +14°C° 0 mm 3 mps 747 mmHg 76%
21:00 +15°C° 0 mm 2 mps 747 mmHg 77%
22:00 +14°C° 0 mm 2 mps 747 mmHg 78%
23:00 +14°C° 0 mm 2 mps 747 mmHg 79%

23 April, Friday

Time Temperature Precipitation Wind Pressure Humidity
00:00 +14°C° 0 mm 2 mps 747 mmHg 80%
01:00 +13°C° 0 mm 2 mps 747 mmHg 80%
02:00 +13°C° 0 mm 1 mps 746 mmHg 81%
03:00 +13°C° 0 mm 1 mps 746 mmHg 81%
04:00 +13°C° 0 mm 1 mps 746 mmHg 81%
05:00 +13°C° 0 mm 1 mps 746 mmHg 82%
06:00 +15°C° 0 mm 1 mps 746 mmHg 71%
07:00 +18°C° 0 mm 1 mps 747 mmHg 60%
08:00 +20°C° 0 mm 1 mps 747 mmHg 49%
09:00 +23°C° 0 mm 1 mps 747 mmHg 42%
10:00 +25°C° 0 mm 2 mps 746 mmHg 36%
11:00 +27°C° 0 mm 2 mps 746 mmHg 30%
12:00 +27°C° 0 mm 2 mps 746 mmHg 31%
13:00 +28°C° 0 mm 3 mps 745 mmHg 33%
14:00 +28°C° 0 mm 4 mps 745 mmHg 35%
15:00 +27°C° 0 mm 4 mps 745 mmHg 39%
16:00 +26°C° 0 mm 4 mps 744 mmHg 44%
17:00 +23°C° 0 mm 4 mps 744 mmHg 48%
18:00 +22°C° 0 mm 3 mps 744 mmHg 53%
19:00 +20°C° 0 mm 3 mps 744 mmHg 57%
20:00 +18°C° 0 mm 2 mps 744 mmHg 62%
21:00 +18°C° 0 mm 2 mps 744 mmHg 62%
22:00 +18°C° 0 mm 2 mps 744 mmHg 61%
23:00 +17°C° 0 mm 2 mps 744 mmHg 61%

24 April, Saturday

Time Temperature Precipitation Wind Pressure Humidity
00:00 +17°C° 0 mm 2 mps 744 mmHg 61%
01:00 +17°C° 0 mm 2 mps 744 mmHg 62%
02:00 +18°C° 0 mm 1 mps 743 mmHg 63%
03:00 +18°C° 0 mm 1 mps 743 mmHg 61%
04:00 +18°C° 0 mm 1 mps 743 mmHg 59%
05:00 +18°C° 0 mm 1 mps 743 mmHg 57%
06:00 +21°C° 0 mm 1 mps 743 mmHg 47%
07:00 +24°C° 0 mm 1 mps 743 mmHg 38%
08:00 +27°C° 0 mm 1 mps 743 mmHg 28%
09:00 +29°C° 0 mm 2 mps 743 mmHg 26%
10:00 +31°C° 0 mm 2 mps 743 mmHg 24%
11:00 +34°C° 0 mm 3 mps 742 mmHg 22%
12:00 +34°C° 0 mm 3 mps 742 mmHg 23%
13:00 +34°C° 0 mm 4 mps 741 mmHg 25%
14:00 +35°C° 0 mm 4 mps 741 mmHg 26%
15:00 +33°C° 0 mm 4 mps 740 mmHg 30%
16:00 +32°C° 0 mm 4 mps 740 mmHg 33%
17:00 +29°C° 0 mm 4 mps 740 mmHg 36%
18:00 +28°C° 0 mm 3 mps 740 mmHg 38%
19:00 +26°C° 0 mm 3 mps 740 mmHg 40%
20:00 +24°C° 0 mm 2 mps 741 mmHg 42%
21:00 +24°C° 0 mm 2 mps 741 mmHg 42%
22:00 +24°C° 0 mm 2 mps 741 mmHg 43%
23:00 +24°C° 0 mm 2 mps 741 mmHg 43%

25 April, Sunday

Time Temperature Precipitation Wind Pressure Humidity
00:00 +23°C° 0 mm 1 mps 741 mmHg 45%
01:00 +23°C° 0 mm 1 mps 740 mmHg 47%
02:00 +22°C° 0 mm 1 mps 740 mmHg 49%
03:00 +22°C° 0 mm 1 mps 740 mmHg 48%
04:00 +22°C° 0 mm 1 mps 740 mmHg 47%
05:00 +22°C° 0 mm 1 mps 740 mmHg 46%
06:00 +25°C° 0 mm 1 mps 740 mmHg 41%
07:00 +27°C° 0 mm 1 mps 740 mmHg 36%
08:00 +30°C° 0 mm 1 mps 740 mmHg 31%
09:00 +31°C° 0 mm 2 mps 740 mmHg 31%
10:00 +33°C° 0 mm 3 mps 740 mmHg 30%
11:00 +34°C° 0 mm 4 mps 740 mmHg 29%
12:00 +33°C° 0 mm 4 mps 739 mmHg 32%
13:00 +33°C° 0 mm 4 mps 739 mmHg 35%
14:00 +32°C° 0 mm 5 mps 739 mmHg 38%
15:00 +30°C° 0 mm 4 mps 739 mmHg 41%
16:00 +29°C° 0 mm 3 mps 739 mmHg 44%
17:00 +27°C° 0 mm 2 mps 739 mmHg 47%
18:00 +26°C° 0 mm 2 mps 739 mmHg 50%
19:00 +24°C° 0 mm 1 mps 739 mmHg 53%
20:00 +23°C° 0 mm 1 mps 739 mmHg 56%
21:00 +22°C° 0 mm 1 mps 739 mmHg 56%
22:00 +22°C° 0 mm 1 mps 739 mmHg 56%
23:00 +22°C° 0 mm 1 mps 738 mmHg 55%
Show more